CW9352 Weather Reports


Display with metric or nautical units.
time (UTC)temp
F
wind
direction
speed
MPH
gust
MPH
rain 1hr
in
rain 24hr
in
rain mn
in
humidity
%
barometer
mb
20260508003523 75 0.0 0.0 0.00 0.59 0.59 95 1013.2
20260508002523 76 207 0.0 1.0 0.00 0.59 0.59 94 1013.3
20260508001523 76 45 0.0 1.0 0.00 0.59 0.59 94 1012.9
20260508000523 76 214 0.0 1.0 0.00 0.59 0.59 94 1013.1
20260507235523 76 47 0.0 0.0 0.00 0.59 0.59 93 1012.9
20260507234704 76 183 1.0 2.0 0.00 0.59 0.59 93 1013.1
20260507233544 77 48 0.0 1.0 0.00 0.59 0.59 92 1012.8
20260507232524 78 193 0.0 1.0 0.00 0.59 0.59 91 1013.1
20260507231524 78 147 0.0 2.0 0.00 0.59 0.59 90 1013.1
20260507230525 78 17 1.0 2.0 0.00 0.59 0.59 89 1013.0
20260507225524 78 334 0.0 0.0 0.00 0.59 0.59 89 1013.0
20260507224545 78 12 0.0 2.0 0.00 0.59 0.59 90 1013.0
20260507223545 78 17 1.0 3.0 0.00 0.59 0.59 89 1013.0
20260507222525 78 0.0 0.0 0.00 0.59 0.59 90 1013.0
20260507221605 78 356 1.0 3.0 0.00 0.59 0.59 90 1012.9
20260507220606 78 30 1.0 2.0 0.00 0.59 0.59 91 1013.0
20260507215525 78 21 0.0 1.0 0.00 0.59 0.59 91 1012.9
20260507214526 77 359 1.0 3.0 0.00 0.59 0.59 91 1012.8
20260507213526 77 358 1.0 4.0 0.00 0.59 0.59 92 1012.8
20260507212526 78 317 0.0 2.0 0.00 0.59 0.59 92 1012.8
20260507211526 77 15 1.0 4.0 0.00 0.59 0.59 93 1012.8
20260507210537 77 359 0.0 2.0 0.00 0.59 0.59 94 1012.9
20260507205517 76 1 0.0 2.0 0.00 0.59 0.59 95 1012.9
20260507204518 76 10 0.0 1.0 0.01 0.59 0.59 95 1012.9
20260507203038 75 0.0 0.0 0.04 0.59 0.59 97 1013.1
20260507202518 74 208 1.0 3.0 0.05 0.59 0.59 97 1013.1
20260507201518 74 188 2.0 3.0 0.09 0.59 0.59 98 1013.2
20260507200518 74 207 1.0 4.0 0.16 0.59 0.59 98 1013.1
20260507195528 73 148 0.0 1.0 0.33 0.59 0.59 98 1012.9
20260507194527 73 205 0.0 2.0 0.38 0.59 0.59 97 1013.3
20260507193528 73 350 0.0 1.0 0.36 0.56 0.56 97 1013.1
20260507192548 73 343 0.0 1.0 0.34 0.54 0.54 97 1013.5
20260507191528 73 0.0 0.0 0.30 0.51 0.51 97 1013.8
20260507190528 73 9 0.0 1.0 0.23 0.44 0.44 97 1013.8
20260507185528 74 7 1.0 2.0 0.06 0.27 0.27 97 1013.8
20260507184502 0 358 1.0 1.0 0.00 0.21 0.21
20260507184029 73 0.0 0.0 0.00 0.21 0.21 97 1013.8
20260507183029 73 357 0.0 1.0 0.00 0.21 0.21 97 1013.9
20260507182129 73 0.0 0.0 0.00 0.21 0.21 97 1014.0
20260507181029 73 354 0.0 1.0 0.00 0.21 0.21 96 1014.1
20260507180029 73 347 0.0 1.0 0.00 0.21 0.21 96 1014.2
20260507175030 73 346 1.0 2.0 0.00 0.21 0.21 95 1014.2
20260507174030 74 351 0.0 2.0 0.00 0.21 0.21 95 1014.4
20260507173049 74 9 0.0 1.0 0.02 0.21 0.21 95 1014.4
20260507172030 74 16 0.0 1.0 0.10 0.21 0.21 95 1014.3
20260507171030 74 0.0 0.0 0.10 0.21 0.21 95 1014.5
20260507170050 74 199 0.0 2.0 0.10 0.21 0.21 95 1014.6
20260507165030 74 332 0.0 2.0 0.10 0.21 0.21 95 1014.7
20260507164056 75 201 0.0 3.0 0.10 0.21 0.21 94 1014.9
20260507163039 76 357 0.0 3.0 0.11 0.19 0.19 93 1014.8
20260507162019 76 221 1.0 4.0 0.11 0.11 0.11 92 1015.0
20260507161039 76 203 1.0 6.0 0.11 0.11 0.11 94 1014.9
20260507160019 77 207 2.0 7.0 0.11 0.11 0.11 97 1014.8
20260507155017 77 207 3.0 9.0 0.10 0.11 0.10 97 1014.6
20260507154017 77 190 2.0 6.0 0.10 0.12 0.10 96 1014.6
20260507152945 77 208 3.0 5.0 0.08 0.10 0.08 95 1014.4
20260507152037 77 211 1.0 4.0 0.00 0.01 0.00 95 1015.3
20260507151017 77 214 2.0 5.0 0.00 0.01 0.00 95 1014.9
20260507150023 77 207 2.0 7.0 0.00 0.01 0.00 95 1014.6
20260507145019 78 204 2.0 10.0 0.00 0.01 0.00 94 1013.8
20260507144017 79 202 3.0 9.0 0.00 0.01 0.00 93 1014.0
20260507143018 79 216 3.0 8.0 0.00 0.01 0.00 93 1013.8
20260507142018 79 201 3.0 8.0 0.00 0.01 0.00 92 1013.3
20260507141018 78 205 2.0 9.0 0.00 0.01 0.00 93 1013.9
20260507140018 78 204 2.0 7.0 0.00 0.01 0.00 94 1013.8
20260507135018 78 209 3.0 7.0 0.00 0.01 0.00 94 1013.7
20260507134039 78 208 2.0 8.0 0.00 0.01 0.00 94 1013.8
20260507133019 78 202 3.0 7.0 0.00 0.01 0.00 95 1013.8
20260507132019 77 216 2.0 6.0 0.00 0.01 0.00 95 1013.8
20260507131019 77 204 3.0 8.0 0.00 0.01 0.00 96 1013.9
20260507130019 76 211 2.0 6.0 0.00 0.01 0.00 97 1013.8
20260507125019 76 219 3.0 8.0 0.00 0.01 0.00 97 1013.7
20260507124020 76 205 2.0 8.0 0.00 0.01 0.00 97 1013.6
20260507123040 76 212 2.0 6.0 0.00 0.01 0.00 98 1013.5
20260507122020 76 207 3.0 8.0 0.00 0.01 0.00 98 1013.5
20260507121020 76 212 2.0 6.0 0.00 0.01 0.00 98 1013.5
20260507120020 76 195 3.0 4.0 0.00 0.01 0.00 98 1013.4
20260507115020 76 194 2.0 4.0 0.00 0.01 0.00 98 1013.2
20260507114020 75 209 2.0 7.0 0.00 0.01 0.00 98 1013.1
20260507113021 75 208 2.0 4.0 0.00 0.01 0.00 98 1012.9
20260507112043 75 199 2.0 6.0 0.00 0.01 0.00 98 1012.6
20260507111044 75 206 2.0 4.0 0.00 0.01 0.00 98 1012.6
20260507110024 75 204 2.0 8.0 0.00 0.01 0.00 98 1012.4
20260507105024 75 210 2.0 6.0 0.00 0.01 0.00 98 1012.0
20260507104025 75 203 3.0 6.0 0.00 0.01 0.00 98 1011.8
20260507103021 75 209 3.0 7.0 0.00 0.01 0.00 98 1011.7
20260507102022 75 212 3.0 5.0 0.00 0.01 0.00 98 1011.6
20260507101022 75 201 3.0 6.0 0.00 0.01 0.00 98 1011.7
20260507100044 75 202 3.0 6.0 0.00 0.01 0.00 98 1011.8
20260507095022 75 205 3.0 7.0 0.00 0.01 0.00 98 1011.7
20260507094022 75 208 3.0 8.0 0.00 0.01 0.00 98 1011.8
20260507093023 75 198 3.0 7.0 0.00 0.01 0.00 98 1011.8
20260507092023 75 200 3.0 7.0 0.00 0.01 0.00 98 1011.6
20260507091017 75 192 3.0 7.0 0.00 0.01 0.00 98 1011.7
20260507090019 75 197 3.0 9.0 0.00 0.01 0.00 98 1011.8
20260507085017 75 197 4.0 8.0 0.00 0.01 0.00 98 1011.8
20260507084024 75 200 3.0 8.0 0.00 0.01 0.00 98 1012.1
20260507083023 75 195 3.0 7.0 0.00 0.01 0.00 97 1012.1
20260507082024 75 195 3.0 6.0 0.00 0.01 0.00 97 1012.2
20260507081044 75 192 2.0 4.0 0.00 0.01 0.00 97 1012.3
20260507080018 75 198 2.0 6.0 0.00 0.01 0.00 97 1012.4
20260507075018 75 187 3.0 6.0 0.00 0.01 0.00 97 1012.5
20260507074018 75 185 3.0 5.0 0.00 0.01 0.00 97 1012.7
20260507073038 75 190 2.0 7.0 0.00 0.01 0.00 97 1012.8
20260507072018 75 203 2.0 6.0 0.00 0.01 0.00 97 1012.7
20260507071025 75 189 2.0 4.0 0.00 0.01 0.00 97 1012.5
20260507070025 75 186 3.0 5.0 0.00 0.01 0.00 97 1012.6
20260507065019 75 190 2.0 4.0 0.00 0.01 0.00 97 1012.6
20260507064018 75 204 2.0 6.0 0.00 0.01 0.00 97 1012.9
20260507063059 75 181 3.0 6.0 0.00 0.01 0.00 97 1012.8
20260507062019 75 176 3.0 6.0 0.00 0.01 0.00 97 1012.8
20260507061025 75 180 3.0 5.0 0.00 0.01 0.00 96 1013.1
20260507060019 75 170 2.0 6.0 0.00 0.01 0.00 96 1013.0
20260507055025 75 187 3.0 5.0 0.00 0.01 0.00 96 1013.3
20260507054019 75 184 3.0 6.0 0.00 0.01 0.00 96 1013.4
20260507053026 75 188 2.0 4.0 0.00 0.01 0.00 96 1013.5
20260507052046 75 196 1.0 5.0 0.00 0.01 0.00 96 1013.6
20260507051021 75 186 3.0 7.0 0.00 0.01 0.00 97 1013.4
20260507050026 75 178 2.0 4.0 0.00 0.01 0.00 97 1013.5
20260507045026 75 193 2.0 5.0 0.00 0.01 0.01 97 1013.4
20260507044026 75 184 3.0 5.0 0.00 0.01 0.01 97 1013.4
20260507043020 75 172 3.0 5.0 0.00 0.01 0.01 97 1013.4
20260507042046 75 174 2.0 4.0 0.00 0.01 0.01 96 1013.5
20260507041021 75 183 3.0 5.0 0.00 0.01 0.01 96 1013.6
20260507040046 75 177 2.0 4.0 0.00 0.01 0.01 96 1013.8
20260507035027 75 183 3.0 5.0 0.00 0.01 0.01 96 1013.7
20260507034022 75 184 2.0 6.0 0.00 0.01 0.01 96 1013.7
20260507033021 75 179 3.0 5.0 0.00 0.01 0.01 96 1013.7
20260507032021 75 184 3.0 6.0 0.00 0.01 0.01 96 1013.7
20260507031027 75 171 2.0 4.0 0.00 0.01 0.01 96 1013.7
20260507030021 75 177 3.0 5.0 0.00 0.01 0.01 96 1013.7
20260507025048 75 176 3.0 5.0 0.00 0.01 0.01 96 1013.6
20260507024027 75 187 3.0 4.0 0.00 0.01 0.01 96 1013.7
20260507023022 75 187 2.0 6.0 0.00 0.01 0.01 96 1013.9
20260507022028 75 169 2.0 4.0 0.00 0.01 0.01 96 1013.6
20260507021028 75 181 3.0 5.0 0.00 0.01 0.01 96 1013.4
20260507020028 75 183 2.0 5.0 0.00 0.01 0.01 96 1013.2
20260507015032 75 178 2.0 4.0 0.00 0.01 0.01 95 1013.0
20260507014025 75 182 3.0 6.0 0.00 0.01 0.01 95 1013.2
20260507013031 75 182 2.0 3.0 0.00 0.01 0.01 95 1013.3
20260507012032 75 184 2.0 4.0 0.00 0.01 0.01 95 1013.4
20260507010032 75 190 2.0 4.0 0.00 0.01 0.01 94 1013.0
20260507005029 75 184 1.0 3.0 0.00 0.01 0.01 94 1013.0